This is the latest recevied weather packets stored in our database for station/object W4JCW. If no packets are shown the sender has not sent any weather packets the latest 10 day(s).
| Time | Temp. | Humidity | Pressure | Rain* | Wind** | Luminosity | Snow |
|---|---|---|---|---|---|---|---|
| 1777641884 | 15° C | 54% | 1012.6 hPa | 0 mm | - | 105 W/m² | - |
| 1777641584 | 15° C | 55% | 1012.7 hPa | 0 mm | - | 87 W/m² | - |
| 1777641283 | 15° C | 54% | 1012.4 hPa | 0 mm | - | 98 W/m² | - |
| 1777640980 | 15° C | 54% | 1012.6 hPa | 0 mm | - | 124 W/m² | - |
| 1777640677 | 15° C | 55% | 1012.4 hPa | 0 mm | - | 130 W/m² | - |
| 1777640373 | 15° C | 54% | 1012.5 hPa | 0 mm | - | 121 W/m² | - |
| 1777640070 | 15° C | 54% | 1012.5 hPa | 0 mm | - | 120 W/m² | - |
| 1777639767 | 15° C | 54% | 1012.7 hPa | 0 mm | - | 138 W/m² | - |
| 1777639465 | 15° C | 54% | 1012.6 hPa | 0 mm | - | 126 W/m² | - |
| 1777639161 | 15° C | 54% | 1012.5 hPa | 0 mm | - | 131 W/m² | - |
| 1777638858 | 15° C | 54% | 1012.4 hPa | 0 mm | - | 131 W/m² | - |
| 1777638553 | 15° C | 53% | 1012.6 hPa | 0 mm | - | 107 W/m² | - |
| 1777638250 | 15° C | 54% | 1012.3 hPa | 0 mm | - | 95 W/m² | - |
| 1777637946 | 15° C | 53% | 1012.6 hPa | 0 mm | - | 75 W/m² | - |
| 1777637642 | 15° C | 53% | 1012.5 hPa | 0 mm | - | 49 W/m² | - |
| 1777637340 | 15° C | 53% | 1012.6 hPa | 0 mm | - | 73 W/m² | - |
| 1777637037 | 15° C | 53% | 1012.6 hPa | 0 mm | - | 63 W/m² | - |
| 1777636732 | 14.44° C | 51% | 1012.6 hPa | 0 mm | - | 62 W/m² | - |
| 1777636428 | 14.44° C | 52% | 1012.6 hPa | 0 mm | - | 58 W/m² | - |
| 1777636124 | 14.44° C | 52% | 1012.5 hPa | 0 mm | - | 41 W/m² | - |
| 1777635820 | 14.44° C | 51% | 1012.7 hPa | 0 mm | - | 31 W/m² | - |
| 1777635516 | 14.44° C | 51% | 1012.6 hPa | 0 mm | - | 28 W/m² | - |
| 1777635213 | 14.44° C | 51% | 1012.6 hPa | 0 mm | - | 39 W/m² | - |
| 1777634910 | 14.44° C | 52% | 1012.5 hPa | 0 mm | - | 36 W/m² | - |
| 1777634607 | 14.44° C | 51% | 1012.3 hPa | 0 mm | - | 33 W/m² | - |
* Rain latest hour (hover to see other rain measurements)
** Current wind speed in m/s (hover to see current wind gust speed)